This is the latest recevied weather packets stored in our database for station/object N2XGL-1. If no packets are shown the sender has not sent any weather packets the latest 10 day(s).
| Time | Temp. | Humidity | Pressure | Rain* | Wind** | Luminosity | Snow |
|---|---|---|---|---|---|---|---|
| 1777854980 | 20.56° C | 27% | 1001.4 hPa | 0 mm | - | - | - |
| 1777854383 | 21.11° C | 26% | 1001.4 hPa | 0 mm | - | - | - |
| 1777853888 | 21.11° C | 26% | 1001.7 hPa | 0 mm | - | - | - |
| 1777853294 | 21.11° C | 26% | 1001.8 hPa | 0 mm | - | - | - |
| 1777852721 | 20.56° C | 23% | 1001.8 hPa | 0 mm | - | - | - |
| 1777852143 | 20.56° C | 26% | 1001.8 hPa | 0 mm | - | - | - |
| 1777851916 | 20.56° C | 24% | 1002.1 hPa | 0 mm | - | - | - |
| 1777851583 | 20.56° C | 24% | 1002.1 hPa | 0 mm | - | - | - |
| 1777851311 | 21.11° C | 23% | 1002.2 hPa | 0 mm | - | - | - |
| 1777851073 | 21.11° C | 23% | 1002.2 hPa | 0 mm | - | - | - |
| 1777850715 | 20.56° C | 21% | 1002.1 hPa | 0 mm | - | - | - |
| 1777850543 | 20.56° C | 21% | 1002.1 hPa | 0 mm | - | - | - |
| 1777849978 | 21.11° C | 24% | 1001.8 hPa | 0 mm | - | - | - |
| 1777848921 | 21.11° C | 25% | 1001.7 hPa | 0 mm | - | - | - |
| 1777848828 | 21.11° C | 25% | 1001.7 hPa | 0 mm | - | - | - |
| 1777848341 | 21.11° C | 24% | 1001.7 hPa | 0 mm | - | - | - |
| 1777847778 | 21.67° C | 24% | 1002.1 hPa | 0 mm | - | - | - |
| 1777847179 | 21.67° C | 24% | 1002.1 hPa | 0 mm | - | - | - |
| 1777846134 | 22.22° C | 23% | 1002 hPa | 0 mm | - | - | - |
| 1777845581 | 22.78° C | 21% | 1002.2 hPa | 0 mm | - | - | - |
| 1777844473 | 23.33° C | 21% | 1002.3 hPa | 0 mm | - | - | - |
| 1777843969 | 23.33° C | 18% | 1002.4 hPa | 0 mm | - | - | - |
| 1777843394 | 23.89° C | 19% | 1002.5 hPa | 0 mm | - | - | - |
| 1777842829 | 23.89° C | 18% | 1002.6 hPa | 0 mm | - | - | - |
| 1777842248 | 23.33° C | 16% | 1002.7 hPa | 0 mm | - | - | - |
* Rain latest hour (hover to see other rain measurements)
** Current wind speed in m/s (hover to see current wind gust speed)